This is the latest recevied weather packets stored in our database for station/object BM2MWA-13. If no packets are shown the sender has not sent any weather packets the latest 10 day(s).
| Time | Temp. | Humidity | Pressure | Rain* | Wind** | Luminosity | Snow |
|---|---|---|---|---|---|---|---|
| 1787530624 | 29.44° C | 68% | 998.5 hPa | 0 mm | - | - | - |
| 1787530023 | 29.44° C | 68% | 998.6 hPa | 0 mm | - | - | - |
| 1787529424 | 29.44° C | 69% | 998.5 hPa | 0 mm | - | - | - |
| 1787528823 | 29.44° C | 68% | 998.4 hPa | 0 mm | - | - | - |
| 1787528224 | 29.44° C | 68% | 998.5 hPa | 0 mm | - | - | - |
| 1787527624 | 28.89° C | 70% | 998.5 hPa | 0 mm | - | - | - |
| 1787527024 | 28.89° C | 71% | 998.5 hPa | 0 mm | - | - | - |
| 1787526424 | 28.89° C | 76% | 998.4 hPa | 0 mm | - | - | - |
| 1787525824 | 28.33° C | 78% | 998.3 hPa | 0 mm | - | - | - |
| 1787525224 | 28.33° C | 81% | 998.2 hPa | 0 mm | - | - | - |
| 1787524625 | 28.33° C | 80% | 998.1 hPa | 0 mm | - | - | - |
| 1787524023 | 28.33° C | 74% | 998.2 hPa | 0 mm | - | - | - |
| 1787523423 | 28.89° C | 73% | 998 hPa | 0 mm | - | - | - |
| 1787522824 | 28.33° C | 75% | 998 hPa | 0 mm | - | - | - |
| 1787522223 | 28.33° C | 75% | 997.8 hPa | 0 mm | - | - | - |
| 1787521624 | 28.33° C | 76% | 997.6 hPa | 0 mm | - | - | - |
| 1787521024 | 28.33° C | 77% | 997.6 hPa | 0 mm | - | - | - |
| 1787520424 | 28.33° C | 77% | 997.6 hPa | 0 mm | - | - | - |
| 1787519824 | 28.33° C | 76% | 997.5 hPa | 0 mm | - | - | - |
| 1787519223 | 28.33° C | 75% | 997.5 hPa | 0 mm | - | - | - |
| 1787518623 | 28.33° C | 74% | 997.5 hPa | 0 mm | - | - | - |
| 1787518023 | 28.89° C | 73% | 997.6 hPa | 0 mm | - | - | - |
| 1787517424 | 28.33° C | 74% | 997.5 hPa | 0 mm | - | - | - |
| 1787516824 | 28.89° C | 74% | 997.5 hPa | 0 mm | - | - | - |
| 1787516225 | 28.89° C | 72% | 997.4 hPa | 0 mm | - | - | - |
* Rain latest hour (hover to see other rain measurements)
** Current wind speed in m/s (hover to see current wind gust speed)